Regional Weather Roundup
Issued by NWS Wakefield, VA

Home | Current Version | Previous Version | Text Only | Print | Product List | Glossary Off
Versions: 1 2 3 4 5 6 7 8 9 10 11 12 13 14 15 16 17 18 19 20 21 22 23 24 25 26 27 28 29 30 31 32 33 34 35 36 37 38 39 40 41 42 43 44 45 46 47 48 49 50

000
ASUS41 KAKQ 281615
RWRAKQ

REGIONAL WEATHER ROUNDUP
NATIONAL WEATHER SERVICE WAKEFIELD VA
1200 PM EDT FRI AUG 28 2015

Note: "fair" indicates few or no clouds below 12,000 feet with no
significant weather and/or obstructions to visibility. * = Denotes
station may not report precipitation (e.g., rain,snow,etc.),
thunder or fog.

VAZ042-051-052>054-056-281700-
NORTHERN VIRGINIA

CITY           SKY/WX    TMP DP  RH WIND       PRES   REMARKS
WASH NATIONAL  MOSUNNY   78  57  48 E3        30.22S
DULLES         MOSUNNY   79  58  48 NW6       30.22F
FORT BELVOIR   MOSUNNY   77  59  53 VRB2      30.21F
QUANTICO       MOSUNNY   77  59  53 S5        30.23S
FREDERICKSBRG* SUNNY     81  60  48 CALM      30.21S
STAFFORD*      PTSUNNY   78  58  49 S5        30.26S
WARRENTON      MOSUNNY   80  63  55 S3        30.21F
CULPEPER*      SUNNY     76  60  56 CALM      30.22F
MANASSAS*      SUNNY     77  59  53 CALM      30.22F
LEESBURG*      SUNNY     79  61  53 S7        30.23S
WINCHESTER     PTSUNNY   77  55  47 CALM      30.22F
FRONT ROYAL*   FAIR      75  59  57 CALM      30.21F
LURAY*         FAIR      77  55  47 CALM      30.21F
$$

VAZ048-049-060>072-079>083-281700-
CENTRAL AND SOUTH CENTRAL VIRGINIA

CITY           SKY/WX    TMP DP  RH WIND       PRES   REMARKS
RICHMOND       MOSUNNY   81  57  43 VRB3      30.22S
CHESTERFIELD*  PTSUNNY   82  54  36 NE5       30.23S
PETERSBURG*    SUNNY     81  62  52 CALM      30.22S
HANOVER        SUNNY     79  59  50 W5        30.23F
TAPPAHANNOCK*  SUNNY     81  52  36 CALM      30.23S
QUINTON*       FAIR      78  61  56 E3        30.21F
CHARLOTTSVILLE MOSUNNY   76  60  57 SW3       30.22F
GORDONSVILLE*  FAIR      78  61  55 S5        30.21F
ORANGE*        SUNNY     79  57  47 CALM      30.23F
LOUISA*        SUNNY     81  59  47 S3        30.21F
BUMPASS*       PTSUNNY   78  59  50 SE3       30.22F
FARMVILLE*     PTSUNNY   82  57  42 S3        30.21F
CREWE*         FAIR     N/A N/A N/A CALM      30.22S
FORT PICKETT*  FAIR      80  60  50 E5        30.23S
CHASE CITY*    FAIR      80  62  53 CALM      30.22F
CLARKSVILLE*   FAIR      79  59  50 CALM      30.22S
SOUTH HILL*    SUNNY     77  61  57 E5        30.28S
LAWRENCEVILLE* FAIR      79  61  53 NE5       30.22S
EMPORIA*       SUNNY     79  59  50 N5        30.23S
$$

VAZ088>098-281700-
SOUTHEAST VIRGINIA

CITY           SKY/WX    TMP DP  RH WIND       PRES   REMARKS
NORFOLK        SUNNY     80  56  43 NE10      30.20S
VIRGINIA BEACH MOSUNNY   83  56  39 NE13      30.20R
NORFOLK NAVAL  MOSUNNY   81  59  47 NE12      30.22S
WEST POINT*    SUNNY     83  52  34 CALM      30.23S
SALUDA*        FAIR      78  64  62 SE7       30.21S
NEWPORT NEWS   MOSUNNY   82  58  43 VRB6      30.21S
LANGLEY AFB    SUNNY     80  61  53 N10       30.20S
FORT EUSTIS    MOSUNNY   80  56  43 VRB6      30.19F
WILLIAMSBURG*  SUNNY     88  63  42 CALM      30.22S
HR EXEC AP*      N/A     82  59  44 NE8       30.22F
FRANKLIN*      MOSUNNY   82  59  45 N8        30.21S
WAKEFIELD      SUNNY     81  58  45 VRB3      30.21F
$$

VAZ020-022-025-037-045-281700-
WEST CENTRAL AND SOUTHWEST VIRGINIA

CITY           SKY/WX    TMP DP  RH WIND       PRES   REMARKS
STAUNTON*      MOSUNNY   79  58  49 SW7       30.25F
WAYNESBORO*    CLOUDY    76  59  55 W3        30.25S
HOT SPRINGS VA CLOUDY    64  60  84 W5        30.32R
LYNCHBURG      PTSUNNY   78  60  53 S5        30.24F
DANVILLE       SUNNY     79  60  52 VRB3      30.23S
SOUTH BOSTON*  FAIR      79  58  47 CALM      30.22F
MARTINSVILLE   PTSUNNY   80  61  51 E3        30.27S
ROANOKE        MOSUNNY   76  60  57 CALM      30.25F
BLACKSBURG     PTSUNNY   74  63  68 W5        30.30F
DUBLIN*        CLOUDY    76  62  62 S5        30.28F
MARION*        MOSUNNY   75  62  63 NE3       30.30F
HILLSVILLE*    PTSUNNY   71  60  68 SW6       30.29S
RICHLANDS*     PTSUNNY   74  21  13 CALM      30.28S
WISE*          SUNNY     75  59  57 SW8       30.29
ABINGDON*      SUNNY     77  58  51 CALM      30.26S
$$

MDZ021>025-VAZ099-100-281700-
SOUTHERN MARYLAND AND THE DELMARVA PENINSULA

CITY           SKY/WX    TMP DP  RH WIND       PRES   REMARKS
PATUXENT RIVER MOSUNNY   78  56  46 N7        30.22S
BAY BRIDGE APT   N/A     75  57  53 NW5       30.22S
LEONARDTOWN    MOSUNNY   77  57  50 CALM      30.23S
DOVER          SUNNY     77  59  54 N5        30.20F
GEORGETOWN     SUNNY     79  52  38 NE6       30.21F
EASTON         MOSUNNY   79  57  47 N5        30.25S
CAMBRIDGE      SUNNY     77  52  41 NE3       30.21S
SALISBURY      SUNNY     79  55  43 VRB3      30.20F
OCEAN CITY     SUNNY     79  58  48 NE10      30.21S
WALLOPS ISLAND MOSUNNY   79  60  52 E10       30.21S
ACCOMACK*      SUNNY    N/A N/A N/A N7        30.20F
$$

NCZ012>017-030>032-281700-
NORTH CENTRAL AND EASTERN NORTH CAROLINA

CITY           SKY/WX    TMP DP  RH WIND       PRES   REMARKS
ROANOKE RAPIDS FAIR      79  59  50 NE8       30.21S
RALEIGH        MOSUNNY   81  58  45 E8        30.22S
ELIZABETH CITY MOSUNNY   82  62  50 N15       30.19R
AHOSKIE*       SUNNY     80  58  48 N8        30.21S
EDENTON*       MOSUNNY   80  63  55 NE10      30.19S
CURRITUCK*     MOSUNNY   81  57  44 N13G21    30.20
KILL DEVIL HLS CLOUDY    80  63  55 N5G16     30.17S
MANTEO         CLOUDY    79  64  60 NE13      30.18S
CAPE HATTERAS  MOSUNNY   82  67  60 NE10G18   30.15R
TARBORO*       FAIR      84  58  40 N8        30.21S
GOLDSBORO      MOSUNNY   81  62  52 NE9       30.19R
WASHINGTON     MOSUNNY   79  64  60 NE9       30.19S
GREENVILLE     MOSUNNY   81  61  50 E10       30.20S
NEW BERN       MOSUNNY   81  64  56 NE12      30.18R
WILMINGTON     MOSUNNY   83  66  56 E10       30.15S
$$

VAZ048-281700-
ELSEWHERE

CITY           SKY/WX    TMP DP  RH WIND       PRES   REMARKS
HARRISBURG PA  MOSUNNY   76  58  53 W5        30.21F
BALTIMORE      MOSUNNY   77  56  48 VRB3      30.21F
ANNAPOLIS      PTSUNNY   75  59  57 SE10      30.22S
ANDREWS AFB    MOSUNNY   78  56  46 NE6       30.21S
PHILADELPHIA   MOSUNNY   79  52  38 VRB6      30.20F
HENDERSON NC   SUNNY     79  54  42 NE6       30.23S
GREENSBORO     MOSUNNY   78  58  49 SE7       30.24R
ROCKY MOUNT    SUNNY     84  57  39 N13       30.21S
$$

VAZ100-281700-
MARINE

STATION/POSITION TIME  TEMP    WIND        PRES    WAVE   SWELL
                       AIR SEA DIR/SP/G            HT/PER HT/PER
                 (UTC) (F)     (DEG/KT/KT) (MB)    (FT/S) (FT/S)
BRANDYWINE LGT   1500   70 75   10/  4/  5 1023.6R
CAPE MAY NJ      1500   77 78  320/  2/  5 1022.8R
LEWES DE         1500   72 75   20/  5/  6 1023.1R
15NM E FENWICK I 1550   74 78  360/  8/ 12 1023.0R   3/10   3/10
OCEAN-CITY-INLET 1500   75 77   40/  3/  6 1022.2R
WACHAPREAGUE VA  1500   76 77   60/  9/ 11 1022.9R
GOOSES REEF MD   1600   74 80   30/  2/  4 1024.3S
COVE POINT MD    1500   72      30/  5/  7 1024.0R
SOLOMONS ISLAND  1500      80                N/A
BISHOPS HEAD MD  1500   74 75   20/  4/  7 1022.3R
PINEY POINT MD   1500          300/  4/  5   N/A
POTOMAC MD       1600   75 79   40/  6/ 10 1022.2S   1
CAMBRIDGE MD     1500   73 79   30/  2/  5 1022.4R
LEWISETTA VA     1500   76 78   40/  3/  6 1022.9R
RAPPAHANNOCK LGT 1500           20/ 11/ 13 1023.6R
STINGRAY PT      1600   75 80   40/  8/ 12 1023.5F   1/ 3
YORK RVR RNG VA  1500   76      50/ 11/ 13 1022.6R
YORKTOWN VA      1500   76 80   50/  6/ 10 1022.8R
JAMESTOWN VA     1600   78 82  360/  2/  6   N/A
DOMINION TERM VA 1500   78      40/  8/ 12 1022.9R
KIPTOPEKE VA     1500      78   90/  8/ 14   N/A
CHES BAY BRIDGE  1512   75 79  340/ 10/ 12 1022.6R
CAPE HENRY VA    1500   76      20/ 12/ 14   N/A
CHESAPEAKE LGHT  1500   75      10/ 14/ 15 1023.1R
WILLOUBY STN VA  1500   75      30/ 12/ 13 1024.0R
CAPE HENRY BUOY  1528      79                N/A     3/10   2/12
1ST LANDING BUOY 1600      79              1022.5R   2/ 3
CAPE CHARLES BUO 1526      79                N/A     3/11   2/11
OFFSHORE WE BUOY 1511      78                N/A     3/10   3/10
64NM E OF VA BCH 1550   78 79   30/ 12/ 16 1021.5R   4/ 8   3/ 8
DUCK PIER NC     1500   76 78   30/ 15/ 18 1021.1R
44100 DUCK FRF   1524      78                N/A     4/11   2/11
44056 DUCK FRF   1511      78                N/A     4/ 5   2/11
OREGON INLET NC  1500   78 75   20/ 15/ 19 1021.2R
HATTERAS NC      1500   79 78   30/ 11/ 17 1020.5R
DIAMOND SHLS NC  1550   80 82   30/ 16/ 19 1020.3R   5/ 5   3/ 8



USA.gov is the U.S. government's official web portal to all federal, state and local government web resources and services.